Wind_Speed
6 8 5 3 3 5 6 6 6 2 3 7 5 4 4 5 7 9 12 12 8 6 8 11 14 18 19 18 21 24 25 26 27 30 27 25 25 23 23 22 21 21 21 22
7 7 2 3 5 7 7 7 4 0 1 7 5 1 3 4 5 7 11 13 12 10 8 7 10 13 15 17 19 23 26 27 32 28 27 23 23 23 23 23 23 24 24 24
7 7 2 5 8 9 9 8 4 8 4 5 7 8 3 4 3 4 9 10 12 11 9 7 4 1 4 15 18 22 24 27 28 26 21 19 20 20 24 27 27 28 28 27
3 3 5 6 5 7 4 2 6 7 7 4 4 5 10 4 2 4 7 8 11 10 9 8 7 6 5 2 7 19 22 23 25 25 27 33 29 27 28 28 28 28 29 29
7 3 4 3 7 3 7 5 4 6 10 6 10 7 5 6 4 3 7 7 9 9 9 8 8 8 7 5 3 4 16 21 24 25 31 31 30 30 26 25 25 27 27 29
6 0 3 3 2 2 3 7 8 8 9 10 2 5 9 2 4 3 4 6 8 9 7 7 7 5 6 7 7 6 6 15 21 27 31 34 31 33 29 27 24 24 26 27
6 5 4 2 8 5 9 9 7 5 5 6 5 6 10 6 3 2 4 6 8 7 6 6 7 7 7 7 6 6 4 9 16 24 29 35 36 34 31 27 28 25 26 29
6 7 7 2 5 6 4 8 6 10 11 10 6 6 2 3 2 2 3 4 5 6 7 6 6 7 8 9 9 8 6 9 12 19 29 33 34 34 33 32 32 31 30 29
4 4 6 4 1 5 4 6 7 11 11 8 11 1 9 4 5 3 5 6 7 8 7 7 7 7 9 11 12 12 9 9 11 13 17 27 30 32 30 31 30 32 30 28
3 6 6 6 3 3 6 2 7 5 7 8 3 4 10 7 2 7 9 10 10 9 10 9 9 10 10 12 11 11 11 12 11 11 11 16 22 27 30 30 29 29 30 29
3 5 7 4 9 6 5 9 4 6 5 9 12 4 6 4 10 12 13 12 12 9 10 10 11 13 12 11 11 11 10 12 11 10 9 11 17 20 26 28 27 31 29 28
3 6 9 10 6 2 8 9 6 7 9 7 7 12 7 6 7 15 16 15 10 10 9 10 12 14 14 13 12 11 10 10 10 11 11 13 15 17 22 21 25 27 29 28
1 5 8 12 11 9 9 8 8 7 9 14 12 10 2 7 15 11 9 9 10 12 12 11 11 11 11 13 11 11 10 10 10 10 11 13 16 18 20 19 21 27 27 28
2 7 9 11 11 9 8 10 12 12 10 15 15 19 15 18 13 10 8 10 10 12 12 12 11 10 14 12 12 12 12 12 11 10 11 11 11 18 20 21 20 24 25 28
4 9 10 11 13 12 13 16 17 18 19 19 20 22 20 13 10 8 8 10 12 13 14 12 11 11 14 14 13 12 11 11 9 10 10 9 8 10 15 23 23 22 25 26
3 9 9 15 15 15 18 19 20 21 23 22 20 17 6 4 5 9 10 11 13 15 13 11 11 12 14 12 9 10 12 11 10 10 8 6 6 6 2 10 13 16 20 24
5 9 10 16 14 10 14 21 19 14 13 10 11 12 8 11 11 10 11 12 13 13 12 12 13 12 14 10 8 10 11 11 11 10 8 3 4 4 4 4 5 7 10 12
10 10 10 12 12 16 3 3 5 9 10 10 10 9 7 7 8 12 9 9 12 13 13 14 12 12 10 9 8 9 9 9 11 7 7 6 5 2 2 5 4 5 5 5
11 11 11 8 11 13 12 9 6 7 10 4 7 5 8 7 11 16 3 8 13 14 14 14 12 10 9 6 6 7 8 7 8 8 6 6 7 5 3 3 2 5 6 6
7 7 8 10 10 11 3 6 3 2 12 7 3 8 11 10 11 9 15 15 16 18 15 15 11 11 7 4 1 2 6 5 6 8 7 7 7 7 6 5 4 1 4 4
10 11 11 11 11 9 4 4 1 8 4 7 7 9 11 12 12 16 16 17 18 19 16 12 10 9 3 4 5 3 2 2 4 6 8 9 10 8 7 7 5 2 2 3
11 9 9 9 12 14 8 3 7 9 12 11 11 11 12 12 15 16 16 15 16 15 14 8 9 6 5 4 4 4 3 3 2 4 4 5 6 8 9 8 7 8 6 7
11 11 9 7 2 4 0 7 12 13 14 14 12 10 11 13 14 14 14 15 15 18 12 11 8 8 7 1 4 9 3 1 3 3 4 4 4 6 7 9 9 6 10 10
9 7 9 11 12 13 10 14 11 11 10 11 9 10 11 12 13 13 13 14 12 16 11 11 8 8 6 2 2 10 4 2 4 5 4 3 2 2 2 4 6 7 9 10
8 0 8 13 12 16 13 12 16 14 9 8 9 9 9 10 11 11 13 13 11 14 12 12 10 8 7 4 4 9 8 4 6 5 6 4 2 1 2 6 6 9 9 7
10 16 12 13 14 15 15 12 13 13 11 10 10 11 9 9 11 11 11 11 11 11 14 11 11 6 6 5 10 10 8 4 4 7 6 4 4 2 0 1 5 6 7 8
Wind_Direction
201 233 206 33 341 322 309 300 301 69 32 297 44 27 37 39 37 47 57 48 66 95 122 155 183 192 197 196 198 197 202 198 194 196 202 206 207 209 212 216 215 211 208 209
195 226 89 305 283 269 268 287 280 132 99 286 8 88 76 58 52 42 55 58 56 85 107 143 171 197 188 199 206 207 210 204 201 206 209 208 213 215 213 213 216 216 211 209
282 77 335 262 256 250 231 271 331 311 318 228 295 194 141 109 141 96 75 74 71 63 75 69 82 137 221 186 212 215 213 215 211 202 216 214 218 222 218 213 212 214 213 211
236 74 299 296 255 248 229 349 279 275 280 324 333 318 171 137 148 156 104 75 74 72 73 67 69 76 99 117 229 223 226 226 222 208 212 207 203 212 223 214 214 214 213 213
97 243 255 281 27 296 56 344 321 275 267 284 221 270 126 148 202 129 88 68 62 59 59 67 54 50 43 37 8 278 232 228 228 217 218 220 225 225 225 220 216 213 215 212
282 217 266 353 140 344 321 254 232 237 256 265 6 280 288 22 34 140 95 49 26 23 34 50 72 57 29 15 6 338 288 239 232 223 220 224 221 223 223 214 215 215 218 218
185 183 130 260 219 206 261 300 286 256 247 297 79 277 268 35 93 75 15 360 6 5 20 20 33 32 24 12 357 333 278 259 249 241 230 222 224 222 222 215 216 215 216 217
257 184 195 57 356 343 348 333 300 296 295 308 152 262 104 55 138 91 345 322 327 353 359 2 10 14 13 1 356 340 301 280 269 257 244 234 228 225 227 224 225 221 223 221
227 199 132 82 85 302 99 279 360 281 237 262 259 268 232 152 191 282 325 328 340 336 338 342 345 354 350 346 343 339 323 312 312 286 256 237 231 227 229 231 221 228 228 227
88 261 183 134 238 134 308 31 242 195 281 284 268 264 273 165 269 325 326 335 337 324 325 330 332 334 334 335 331 328 322 311 311 309 272 247 237 235 232 233 228 225 230 227
306 258 157 179 215 303 183 219 244 301 288 300 293 270 96 279 322 322 322 330 326 324 318 324 321 328 319 316 318 317 318 311 304 308 304 281 251 238 237 231 230 232 228 229
48 286 270 280 68 309 274 289 272 297 291 256 276 275 320 359 319 309 315 320 322 311 324 325 329 322 312 309 305 309 313 311 310 307 290 284 276 265 254 242 233 234 226 229
88 261 264 230 189 200 233 226 264 286 277 266 279 283 331 272 313 321 319 323 320 324 326 324 321 316 313 304 306 307 304 306 308 310 306 285 268 263 260 253 239 234 227 225
217 272 272 285 327 332 273 251 258 266 279 291 285 295 300 311 315 313 318 316 317 316 318 320 321 319 311 306 302 293 293 294 297 296 302 293 277 261 249 248 243 231 228 229
268 266 281 269 281 275 270 278 278 272 275 272 285 291 302 317 321 311 300 315 318 317 316 325 324 321 317 307 308 293 295 295 299 288 285 286 288 282 256 239 235 237 229 228
224 272 278 275 273 267 271 272 266 266 270 273 281 282 335 9 278 293 310 317 317 314 309 314 320 322 317 317 301 301 293 293 301 289 292 299 305 304 322 228 226 231 232 229
267 282 275 272 287 290 273 258 252 265 272 266 275 318 321 307 313 316 318 313 316 316 309 310 317 312 310 307 304 304 302 300 293 301 296 305 303 314 296 106 134 165 173 178
266 260 278 272 279 262 274 7 298 278 280 282 280 304 327 309 315 311 302 309 312 313 310 310 310 311 293 300 314 318 321 316 306 310 320 323 313 352 306 257 219 158 164 172
241 255 261 254 255 278 283 248 242 265 273 345 290 290 304 314 307 285 31 309 307 304 300 299 298 277 271 290 329 326 313 323 326 324 327 341 345 329 351 325 200 186 176 196
212 243 259 259 272 282 27 95 70 337 269 138 283 311 319 315 296 321 345 318 306 300 296 293 286 253 241 260 247 311 308 356 347 335 360 16 11 13 5 354 325 220 163 161
217 230 243 249 251 272 52 114 159 245 32 346 330 313 310 304 312 316 308 307 307 302 297 289 256 253 225 227 218 175 228 291 314 338 1 12 16 8 6 5 354 341 160 122
241 247 238 231 263 257 94 158 248 349 321 317 306 300 309 305 308 309 314 314 311 304 301 254 239 223 194 191 229 226 236 291 334 345 346 357 9 19 17 24 31 58 97 101
249 249 286 283 311 54 313 295 296 304 298 291 299 309 309 307 312 319 316 318 320 311 283 230 222 192 188 234 2 294 267 293 310 341 343 1 8 16 24 29 59 81 86 81
243 233 253 257 239 262 316 299 301 313 294 294 309 307 310 310 318 315 316 324 319 307 267 231 201 191 189 163 349 293 284 335 324 320 321 322 338 38 25 66 51 84 102 103
292 153 257 260 264 273 279 307 325 305 294 290 295 303 305 310 310 315 314 319 310 306 288 241 206 203 210 206 257 284 298 320 308 311 302 301 278 14 93 62 54 68 64 57
262 260 257 267 298 306 295 297 309 303 300 305 307 307 310 305 307 313 307 320 312 311 308 262 216 195 225 220 245 269 256 244 293 310 294 312 276 234 325 201 113 87 99 95
Height
761 766 766 759 758 760 766 768 768 757 751 756 754 752 747 741 737 739 738 736 734 734 736 743 751 756 760 768 772 775 780 781 786 788 794 797 799 803 806 809 813 816 819 822
769 768 755 755 758 764 763 767 762 754 752 754 749 754 745 743 745 743 740 743 739 735 739 744 750 756 759 765 770 773 775 777 777 784 788 793 797 799 801 804 807 810 813 816
765 759 756 762 761 768 761 765 762 765 752 745 752 756 751 741 739 738 739 741 745 746 746 749 751 754 755 761 767 769 770 772 775 784 788 791 793 796 796 795 798 801 805 808
762 754 762 761 764 760 763 756 760 763 765 767 750 772 752 747 744 740 740 741 744 748 750 751 751 755 758 760 761 763 766 769 772 780 782 779 776 782 788 788 790 794 798 801
766 763 763 765 767 758 768 755 758 759 762 763 755 768 745 743 750 744 742 744 745 747 750 752 754 756 757 758 758 758 759 763 768 773 774 773 774 778 782 781 785 789 792 795
757 751 756 756 758 758 756 759 757 755 755 775 756 767 753 745 748 747 744 745 747 748 748 752 755 757 758 758 757 757 757 758 761 766 769 769 769 773 775 777 778 782 787 789
761 759 754 753 763 754 755 758 774 780 772 775 760 771 755 745 746 748 751 748 747 747 748 750 752 755 756 757 758 758 758 758 758 758 761 763 765 768 767 769 773 775 778 780
771 781 761 756 761 768 766 768 783 807 791 774 761 779 754 749 746 747 748 747 746 747 747 749 752 754 754 755 755 755 755 756 754 752 750 752 755 758 760 762 763 767 768 771
772 772 759 759 757 762 768 776 763 779 767 784 762 752 744 747 748 746 746 746 747 750 750 750 751 752 753 753 752 751 751 749 748 745 743 743 746 750 751 753 756 760 762 765
764 779 759 762 760 762 766 761 779 769 802 798 767 774 767 757 754 749 748 749 749 749 749 748 748 749 751 751 749 748 746 745 744 741 739 739 741 743 745 748 748 751 755 759
756 768 768 765 768 765 769 770 773 770 777 789 789 768 745 753 749 752 748 748 751 752 750 749 749 748 748 748 747 746 744 743 741 739 737 736 736 737 739 740 740 746 749 752
760 762 776 766 760 762 763 764 769 783 787 772 782 779 736 746 749 749 747 747 748 748 747 746 746 746 745 745 744 743 742 740 739 737 737 735 732 732 732 731 734 739 742 745
762 770 785 773 766 764 770 764 767 772 776 788 787 772 735 740 744 745 754 751 749 747 744 744 744 744 743 743 741 740 739 738 736 735 734 732 730 729 728 728 730 733 736 738
772 771 784 784 772 766 776 770 765 770 784 773 766 759 749 746 748 747 752 752 750 746 744 742 742 741 739 738 737 738 737 735 734 733 732 730 727 725 724 725 724 726 728 731
767 784 774 771 767 769 772 771 767 770 766 773 762 760 751 748 750 753 753 749 748 745 741 740 740 738 736 735 735 734 734 733 731 731 728 726 724 721 718 717 717 719 721 723
767 783 778 782 770 769 775 765 763 761 758 755 754 757 738 749 749 749 749 748 747 743 739 738 738 737 735 734 737 735 733 730 729 727 725 724 721 719 713 710 711 713 715 715
777 777 782 785 768 773 784 761 754 752 747 750 760 747 746 751 750 749 749 747 745 742 739 737 736 736 735 734 734 732 731 729 726 724 721 720 719 717 715 713 712 710 710 711
779 783 781 782 777 796 754 745 748 754 747 744 748 748 752 753 751 748 746 747 744 740 739 737 736 737 735 734 732 731 730 728 725 722 721 719 717 714 713 714 711 708 710 710
767 775 777 784 770 755 750 741 756 756 754 741 752 752 749 747 750 742 738 743 743 740 738 736 736 737 734 732 731 730 729 726 723 721 719 717 715 713 713 712 710 708 707 708
768 773 777 770 785 783 752 751 751 754 764 740 750 751 750 749 754 740 740 741 739 736 734 733 733 732 730 731 729 726 728 725 725 724 720 717 716 713 712 710 708 706 704 704
773 775 777 769 773 761 745 750 752 774 767 747 748 749 749 750 746 742 740 736 734 731 729 730 730 728 728 728 728 725 729 725 727 724 720 717 715 714 713 710 708 704 703 704
768 770 765 765 772 774 745 753 766 750 746 745 745 745 746 743 741 739 735 734 731 727 725 728 727 727 728 727 727 726 727 728 725 724 723 721 718 716 714 711 708 705 706 707
772 760 760 758 755 751 749 752 747 746 748 745 743 741 742 741 738 735 733 731 728 724 724 724 722 724 727 726 726 727 726 726 725 723 723 722 720 719 716 713 708 708 710 709
752 753 762 759 751 747 747 744 742 742 743 741 739 740 739 738 736 734 732 729 730 725 723 721 721 724 725 725 725 728 726 724 723 722 723 722 721 720 720 716 713 709 710 711
750 758 756 754 750 749 744 742 744 743 740 741 739 738 737 736 734 732 730 729 729 726 722 721 722 724 724 725 724 727 726 725 724 722 721 720 719 719 718 719 717 715 715 714
750 752 754 751 744 747 747 745 744 744 740 738 737 736 735 734 732 730 728 727 727 725 720 719 720 723 723 725 725 725 725 725 725 723 719 718 717 716 716 716 718 718 719 718